To modify the report, make a selection from each column below and re-run.

Report Type Graduation Filter Grade Filter Gender

(Grade filter for indiv report.)


Course PR Report: Dana Hills HS

The report below currently displays:

  • Individual PR's
  • Grads & Current Runners
  • All Grades
  • Girls
  • 3 miles
  • Grads & Current Runners
All Time Rank Runner Name Grad Year Time Pace PR Date PR Event # of
Races
Graph full race
history on course
(pick up to 15)
1 Megan Petkovic 2008 18:14.2 6:05 9/22/07 Dana Hills Invitational 3
2 Kelly Caulfield 2010 18:40.3 6:13 9/26/09 Dana Hills Invitational 2
3 Shelly Foerster 2008 18:50.5 6:17 9/24/05 Dana Hills Invitational 1
4 Aiko Araki 2009 18:50.6 6:17 9/27/08 Dana Hills Invitational 3
5 Melissa Bartoletti 2011 19:14.3 6:25 9/27/08 Dana Hills Invitational 3
6 Emily Leeb 2019 19:14.9 6:25 9/24/16 Dana Hills Invitational 1
7 Carolina Leyva 2012 19:21.6 6:27 9/24/11 Dana Hills Invitational 2
8 Alyssa Cook 2011 19:26.8 6:29 9/27/08 Dana Hills Invitational 3
9 Lina Leyva 2012 19:39 6:33 9/25/10 Dana Hills Invitational 2
10 Shelley Foerster 2008 19:43.8 6:35 9/30/06 Dana Hills Invitational 1
11 Alissa Cook 2011 19:46.4 6:35 9/22/07 Dana Hills Invitational 1
12 Hannah Jensen 2022 19:46.5 6:36 9/28/19 Dana Hills Invitational 1
13 Ava Scarberry 2022 19:47.4 6:36 9/28/19 Dana Hills Invitational 2
14 Kristen Rooney 2007 19:56.6 6:39 9/30/06 Dana Hills Invitational 1
15 Christina Page 2007 19:57.4 6:39 9/24/05 Dana Hills Invitational 1
16 Regan Heredia 2021 20:00.7 6:40 9/28/19 Dana Hills Invitational 1
17 Shelly Foerester 2008 20:03.4 6:41 9/22/07 Dana Hills Invitational 1
18 Hayley Cook 2013 20:09.9 6:43 9/25/10 Dana Hills Invitational 1
19 Kirsten Herrero 2014 20:12.6 6:44 9/24/11 Dana Hills Invitational 1
20 My Ly 2019 20:14.1 6:45 9/24/16 Dana Hills Invitational 1
21 Kristen Rooney 2008 20:17.7 6:46 9/24/05 Dana Hills Invitational 1
22 Candace Abadjian 2008 20:20.6 6:47 9/22/07 Dana Hills Invitational 1
23 Sophia Sherman 2012 20:27.6 6:49 9/24/11 Dana Hills Invitational 3
24 Michelle Sendejas 2009 20:30.1 6:50 9/30/06 Dana Hills Invitational 1
25 Michelle Sendeias 2009 20:31.8 6:51 9/24/05 Dana Hills Invitational 1
26 Soemy Garcia 2016 20:35.4 6:52 9/22/12 Dana Hills Invitational 1
27 Lupe Mata 2024 20:40.6 6:54 9/25/21 Dana Hills Invitational 1
28 Alexandria Brady 2018 20:42.7 6:54 9/24/16 Dana Hills Invitational 1
29 Marissa Jacobus 2011 20:43.7 6:55 9/25/10 Dana Hills Invitational 4
30 Rachel Tang 2014 20:45.9 6:55 9/24/11 Dana Hills Invitational 2
31 Courtney Blacheley 2009 20:50.8 6:57 9/27/08 Dana Hills Invitational 1
32 Lacey Schlarmann 2021 20:52.1 6:57 9/28/19 Dana Hills Invitational 1
33 Alex Edwards 2011 21:02 7:01 9/27/08 Dana Hills Invitational 3
34 Candace Abanjian 2008 21:03.3 7:01 9/24/05 Dana Hills Invitational 1
35 Traci Biedermann 2009 21:05.5 7:02 9/22/07 Dana Hills Invitational 1
36 Pamela Copley 2014 21:07.3 7:02 9/24/11 Dana Hills Invitational 2
37 Monica Fernandez 2013 21:07.9 7:03 9/25/10 Dana Hills Invitational 1
38 Charisa Dorn 2015 21:13.8 7:05 9/22/12 Dana Hills Invitational 1
39 Brooke Gann 2015 21:14.2 7:05 9/22/12 Dana Hills Invitational 1
40 Sonia Salazar 2022 21:15.9 7:05 9/28/19 Dana Hills Invitational 2
41 Autumn Velasquez 2010 21:21.1 7:07 9/30/06 Dana Hills Invitational 1
42 Rachel Bryne 2007 21:22 7:07 9/30/06 Dana Hills Invitational 1
43 Briana Fieffer 2020 21:22.2 7:07 9/28/19 Dana Hills Invitational 2
44 Traci Beiderman 2009 21:26 7:09 9/24/05 Dana Hills Invitational 1
45 Abigail Delight 2025 21:29.6 7:10 9/25/21 Dana Hills Invitational 1
46 Audrey Simpson 2019 21:29.8 7:10 9/24/16 Dana Hills Invitational 1
47 Jasmine Alvarez 2017 21:35.5 7:12 9/24/16 Dana Hills Invitational 1
48 Anna Johnson 2007 21:41.6 7:14 9/30/06 Dana Hills Invitational 1
49 Brittney Gann 2015 21:47.2 7:16 9/22/12 Dana Hills Invitational 1
50 Kathy Blanco 2010 21:49.9 7:17 9/26/09 Dana Hills Invitational 2
51 Vicky Vu 2014 21:52.6 7:18 9/24/11 Dana Hills Invitational 2
52 Sandra Vu 2021 21:58.3 7:19 9/28/19 Dana Hills Invitational 1
53 Kristen Herrero 2014 21:59.1 7:20 9/22/12 Dana Hills Invitational 1
54 Anelise Galen 2019 22:00.6 7:20 9/24/16 Dana Hills Invitational 1
55 Lauren Oechsle 2013 22:02.1 7:21 9/25/10 Dana Hills Invitational 1
56 Alexandra Edwards 2011 22:05.1 7:22 9/22/07 Dana Hills Invitational 1
57 Laura Hanak 2008 22:07.1 7:22 9/22/07 Dana Hills Invitational 2
58 Sabrina Gutierrez 2023 22:08.1 7:23 9/25/21 Dana Hills Invitational 1
59 autumn long 2024 22:09.1 7:23 9/25/21 Dana Hills Invitational 1
60 Karissa Sugita 2019 22:10.3 7:23 9/24/16 Dana Hills Invitational 1
61 Emily wood 2022 22:10.8 7:24 9/28/19 Dana Hills Invitational 1
62 Kandice Knopp 2011 22:10.9 7:24 9/25/10 Dana Hills Invitational 1
63 Vanessa Lord 2006 22:11 7:24 9/24/05 Dana Hills Invitational 1
64 Alissa Bowen 2010 22:11.4 7:24 9/30/06 Dana Hills Invitational 1
65 Bria Reiniger 2007 22:12.3 7:24 9/24/05 Dana Hills Invitational 2
66 Vickey Vu 2014 22:17.9 7:26 9/22/12 Dana Hills Invitational 1
67 Markae Moses 2011 22:18.1 7:26 9/22/07 Dana Hills Invitational 1
68 Sophia Cruz 2023 22:18.5 7:26 9/25/21 Dana Hills Invitational 2
69 Traci Biederman 2009 22:20.2 7:27 9/27/08 Dana Hills Invitational 1
70 Aubrey Delano 2007 22:22.3 7:27 9/24/05 Dana Hills Invitational 1
71 Alice Huynh 2008 22:27.5 7:29 9/22/07 Dana Hills Invitational 1
72 Bethany Lattire 2010 22:27.8 7:29 9/22/07 Dana Hills Invitational 1
73 Cadence Koenke 2024 22:28.1 7:29 9/25/21 Dana Hills Invitational 1
74 Kelsey Bladow 2011 22:31.1 7:30 9/22/07 Dana Hills Invitational 1
75 Joanna Hwang 2018 22:31.9 7:31 9/24/16 Dana Hills Invitational 1
76 Alice Huynh 2007 22:35.1 7:32 9/30/06 Dana Hills Invitational 1
77 Connie Lim 2012 22:43.8 7:35 9/26/09 Dana Hills Invitational 1
78 Reagan Orr 2021 22:51.3 7:37 9/28/19 Dana Hills Invitational 1
79 Mckendrick Madison 2011 22:58.1 7:39 9/22/07 Dana Hills Invitational 1
80 Lucy Hendriks 2025 23:00.1 7:40 9/25/21 Dana Hills Invitational 1
81 Samantha Polk 2022 23:07.9 7:43 9/25/21 Dana Hills Invitational 1
82 Yasmin Marin 2013 23:11.5 7:44 9/24/11 Dana Hills Invitational 1
83 Kristen Herrera 2014 23:14.6 7:45 9/25/10 Dana Hills Invitational 1
84 Brooke Tebbe 2014 23:15.5 7:45 9/24/11 Dana Hills Invitational 3
85 Jocelyn Corona 2024 23:16.1 7:45 9/25/21 Dana Hills Invitational 1
86 Bethany Lattiere 2010 23:17.1 7:46 9/30/06 Dana Hills Invitational 1
87 Riley Clausi 2025 23:20.1 7:47 9/25/21 Dana Hills Invitational 1
88 Alyse Blachly 2008 23:20.7 7:47 9/22/07 Dana Hills Invitational 1
89 Brittany Frymire 2008 23:24.5 7:48 9/24/05 Dana Hills Invitational 1
90 Molly Pojar 2015 23:30.5 7:50 9/24/11 Dana Hills Invitational 2
91 Devin Chatterton 2009 23:30.7 7:50 9/27/08 Dana Hills Invitational 2
92 Courtney Blachly 2009 23:46 7:55 9/24/05 Dana Hills Invitational 2
93 Chelsea Bilbia 2014 23:46.9 7:56 9/24/11 Dana Hills Invitational 2
94 Marcela Lara 2012 23:49.9 7:57 9/24/11 Dana Hills Invitational 1
95 Bethany Lettiere 2010 23:57.4 7:59 9/26/09 Dana Hills Invitational 1
96 Kate Westfall 2011 24:05 8:02 9/22/07 Dana Hills Invitational 1
97 Taylor Perez 2019 24:15.3 8:05 9/24/16 Dana Hills Invitational 1
98 Brenna Pike 2013 24:16.1 8:05 9/24/11 Dana Hills Invitational 1
99 Alyssa Bacilio 2025 24:16.3 8:05 9/25/21 Dana Hills Invitational 1
100 Geneve Lopez 2023 24:23.6 8:08 9/28/19 Dana Hills Invitational 1
101 samantha aguilar 2024 24:23.9 8:08 9/25/21 Dana Hills Invitational 1
102 Kayla Yesenosky 2024 24:25.8 8:09 9/25/21 Dana Hills Invitational 1
103 Marlene Cuando 2013 24:26.2 8:09 9/22/12 Dana Hills Invitational 2
104 Tara Tolmann 2009 24:26.8 8:09 9/30/06 Dana Hills Invitational 1
105 Khadija Abdulahi 2013 24:35.8 8:12 9/24/11 Dana Hills Invitational 1
106 Alyssa VanWormer 2023 24:42.3 8:14 9/25/21 Dana Hills Invitational 1
107 Erika Tolman 2011 24:46.5 8:16 9/22/07 Dana Hills Invitational 1
108 Samantha Skinner 2023 24:51.3 8:17 9/28/19 Dana Hills Invitational 2
109 Sebrina Bulla 2014 24:56.9 8:19 9/24/11 Dana Hills Invitational 1
110 Shannon Dirgo 2012 24:57.3 8:19 9/24/11 Dana Hills Invitational 1
111 Mary Hyepock 2011 25:02.3 8:21 9/22/07 Dana Hills Invitational 1
112 Khadja Abdulahi 2013 25:07.9 8:23 9/22/12 Dana Hills Invitational 1
113 Elena Hernandez 2021 25:10.9 8:24 9/28/19 Dana Hills Invitational 1
114 Leanna Gohata 2011 25:16 8:25 9/27/08 Dana Hills Invitational 1
115 Sabrina Bulla 2014 25:19.6 8:27 9/22/12 Dana Hills Invitational 1
116 Eunice Kahng 2014 25:21.1 8:27 9/22/12 Dana Hills Invitational 1
117 Mia Wong 2025 25:21.7 8:27 9/25/21 Dana Hills Invitational 1
118 Kayla Olivieri 2016 25:23.6 8:28 9/22/12 Dana Hills Invitational 1
119 Jessica Hynh 2013 25:33.8 8:31 9/24/11 Dana Hills Invitational 1
120 Brenda Sendejas 2012 25:42.8 8:34 9/24/11 Dana Hills Invitational 2
121 Karen Tran 2022 25:54.9 8:38 9/28/19 Dana Hills Invitational 1
122 Christine Herrera 2012 26:04 8:41 9/24/11 Dana Hills Invitational 1
123 Vanessa Lee 2012 26:10.7 8:44 9/24/11 Dana Hills Invitational 1
124 Rachel Wilkerson 2023 26:10.8 8:44 9/25/21 Dana Hills Invitational 1
125 Nichole Herschler 2009 26:18.4 8:46 9/30/06 Dana Hills Invitational 1
126 Natalie Bonilla 2023 26:20.8 8:47 9/25/21 Dana Hills Invitational 2
127 Carolina Meza 2023 26:23.5 8:48 9/25/21 Dana Hills Invitational 1
128 Acelyn Dao 2024 26:46.6 8:56 9/25/21 Dana Hills Invitational 1
129 Bailey Hicken 2018 26:54.4 8:58 9/24/16 Dana Hills Invitational 1
130 Marissa Traviglia 2022 27:00 9:00 9/28/19 Dana Hills Invitational 1
131 Taylor Herrick 2025 27:05.8 9:02 9/25/21 Dana Hills Invitational 1
132 Breann Dolan 2024 27:11.9 9:04 9/25/21 Dana Hills Invitational 1
133 Amy Nguyen 2018 27:14.6 9:05 9/24/16 Dana Hills Invitational 1
134 Andrea Ramirez 2009 27:22.7 9:08 9/24/05 Dana Hills Invitational 1
135 Daisy Cuevas 2013 27:41.6 9:14 9/22/12 Dana Hills Invitational 1
136 Nicole Estes 2008 27:50.9 9:17 9/22/07 Dana Hills Invitational 1
137 Jistine Johnson 2011 28:02.9 9:21 9/27/08 Dana Hills Invitational 1
138 Alexa Rodell 2007 28:04.4 9:21 9/24/05 Dana Hills Invitational 1
139 Jessie Vu 2021 28:09 9:23 9/28/19 Dana Hills Invitational 1
140 Nicole Hershler 2009 28:12.1 9:24 9/24/05 Dana Hills Invitational 1
141 Carissa Shaw 2008 28:28.5 9:30 9/24/05 Dana Hills Invitational 1
142 Britton Dedmon 2020 28:41.7 9:34 9/28/19 Dana Hills Invitational 1
143 Cristina Salazar 2009 29:19.8 9:47 9/24/05 Dana Hills Invitational 1
144 Kristin Lambert 2008 30:25.7 10:09 9/24/05 Dana Hills Invitational 1
145 Joyzel Aquino 2020 30:39.3 10:13 9/24/16 Dana Hills Invitational 1
146 Riley Shields 2022 31:54 10:38 9/28/19 Dana Hills Invitational 1
147 Evelyn Ortiz 2019 35:55 11:58 9/24/16 Dana Hills Invitational 1
All Time Rank Runner Name Grad Year Time Pace PR Date PR Event # of
Races
Graph full race
history on course
(pick up to 7)

Note: All columns are sortable by clicking on the column heading.